Location: *
(58.7167°N, 26.1833°E)
Time: 09:54:59
(UTC+00:00)

USA 229 DEB - Pass Details

Date: 25 August 2019
Orbit: 1003 x 1210 km, 63.4° (Epoch: 31 August)

Event Time Altitude Azimuth Distance (km) Brightness Sun altitude
Rises 19:06:39 0° 307° (NW) 3,920 8.9 -10.7°
Reaches altitude 10° 19:09:22 10° 302° (WNW) 2,990 7.5 -11.0°
Maximum altitude 19:16:08 48° 231° (SW) 1,479 4.5 -11.6°
Enters shadow 19:22:46 12° 161° (SSE) 2,971 5.5 -12.2°
